Torna al catalogo

FENGYUN 1C DEB

AttivoPO
NORAD 32324·DEBRIS·🇨🇳 China

Lanciato May 10, 1999 da Taiyuan Satellite Launch Center

Loading…

Prossimi Passaggi (prossime 24 ore)

TLE

AggiornatoSource: Space-Track

Epoca: Sep 14, 2026, 14:16 UTC

1 32324U 99025CXR 26257.59467105  .00000400  00000-0  25383-3 0  9996
2 32324  99.5514  20.4931 0049280 343.1093  16.8433 14.09588653678841

Traccia FENGYUN 1C DEB in tempo reale con AllMySat

Download on the App Store